Simultaneous Nadir Overpasses (SNOs) Predictions

Prediction of SNOs between NPP and TERRA Satellite Orbit:

Table of predicted SNOs for the next 14.0 days since TLE Epoch: 12/15/2018
Index Date (NPP) Time (NPP) Lat,Lon (NPP) SZA (NPP ) Date (TERRA) Time (TERRA) Lat,Lon (TERRA) SZA (TERRA ) Distance(km) Time Diff (sec)
1 12/15/2018 18:22:48 68.48, -97.20 91.66 12/15/2018 18:23:59 68.43, -97.09 91.60 6.85 71
2 12/15/2018 19:13:28 -68.29, 70.37 88.54 12/15/2018 19:13:30 -68.26, 70.33 88.57 3.17 2
3 12/15/2018 20:04:11 68.11,-122.10 91.29 12/15/2018 20:02:58 68.10,-122.21 91.28 4.91 73
4 12/18/2018 10:39:41 68.39, 18.70 91.66 12/18/2018 10:40:29 68.38, 18.73 91.66 1.14 48
5 12/18/2018 11:30:22 -68.24,-173.80 88.49 12/18/2018 11:30:00 -68.22,-173.84 88.51 3.09 22
6 12/18/2018 12:20:49 67.20, -5.22 90.47 12/18/2018 12:19:42 67.27, -7.28 90.54 88.97 67
7 12/21/2018 02:06:09 -69.42, -34.25 87.25 12/21/2018 02:07:16 -69.32, -31.86 87.37 94.06 67
8 12/21/2018 02:56:35 68.34, 134.52 91.67 12/21/2018 02:56:59 68.32, 134.53 91.64 2.87 24
9 12/21/2018 03:47:16 -68.20, -57.97 88.49 12/21/2018 03:46:29 -68.21, -57.97 88.48 1.77 47
10 12/23/2018 18:22:47 -68.58, 82.68 88.11 12/23/2018 18:23:58 -68.52, 83.01 88.18 14.77 71
11 12/23/2018 19:13:28 68.31,-109.66 91.62 12/23/2018 19:13:27 68.29,-109.62 91.60 2.16 1
12 12/23/2018 20:04:09 -68.15, 57.85 88.54 12/23/2018 20:02:58 -68.13, 57.82 88.56 2.56 71
13 12/26/2018 10:39:38 -68.38,-161.29 88.38 12/26/2018 10:40:29 -68.37,-161.29 88.39 0.71 51
14 12/26/2018 11:30:22 68.27, 6.16 91.51 12/26/2018 11:29:56 68.25, 6.21 91.49 3.09 26
15 12/26/2018 12:20:48 -67.30, 174.66 89.47 12/26/2018 12:19:40 -67.37, 172.83 89.39 78.67 68
16 12/29/2018 02:06:07 69.35, 145.84 92.51 12/29/2018 02:07:13 69.25, 148.06 92.37 88.32 66
17 12/29/2018 02:56:32 -68.34, -45.47 88.54 12/29/2018 02:56:58 -68.31, -45.47 88.57 2.68 26
18 12/29/2018 03:47:15 68.18, 122.04 91.30 12/29/2018 03:46:25 68.19, 122.03 91.32 1.29 50




NCC Satellite Simultaneous Nadir Overpasses (SNOs) Prediction Service
